When you browse on this site, cookies collect data to enhance your experience and personalize the content and advertising you see.
Visit our Privacy Policy to learn more. By continuing to use the site, you agree to this use of cookies and data.
  • In Österreich
  • Länderverzeichnis
  • Für 7 Tage
  • Wassertemperatur
  • Wetterkarte
  • News
  • Widgets
  • user-avatar
    Anmelden

    Stündliche Wetter Vidoshin

    Heute, 23 Februar, Sonntag

    Zeit Temperatur Niederschläge Wind Luftdruck Luftfeuchtigkeit
    00:00 +3°C° 0 mm 7 m/S 746 mmHg 67%
    01:00 +3°C° 0 mm 7 m/S 745 mmHg 69%
    02:00 +3°C° 0 mm 7 m/S 744 mmHg 68%
    03:00 +3°C° 0.2 mm 7 m/S 744 mmHg 73%
    04:00 +3°C° 0.2 mm 7 m/S 743 mmHg 78%
    05:00 +4°C° 0.2 mm 7 m/S 743 mmHg 83%
    06:00 +3°C° 0.1 mm 7 m/S 743 mmHg 79%
    07:00 +3°C° 0.1 mm 7 m/S 743 mmHg 75%
    08:00 +3°C° 0.1 mm 7 m/S 743 mmHg 72%
    09:00 +4°C° 0.2 mm 7 m/S 742 mmHg 68%
    10:00 +4°C° 0.2 mm 8 m/S 742 mmHg 64%
    11:00 +4°C° 0.2 mm 8 m/S 742 mmHg 60%
    12:00 +5°C° 0.1 mm 8 m/S 742 mmHg 57%
    13:00 +5°C° 0.1 mm 8 m/S 742 mmHg 54%
    14:00 +5°C° 0.1 mm 7 m/S 742 mmHg 52%
    15:00 +5°C° 0 mm 6 m/S 741 mmHg 54%
    16:00 +5°C° 0 mm 5 m/S 741 mmHg 57%
    17:00 +5°C° 0 mm 4 m/S 740 mmHg 59%
    18:00 +4°C° 0.1 mm 4 m/S 740 mmHg 65%
    19:00 +4°C° 0.1 mm 4 m/S 740 mmHg 70%
    20:00 +3°C° 0.1 mm 3 m/S 740 mmHg 76%
    21:00 +3°C° 0.1 mm 3 m/S 738 mmHg 79%
    22:00 +3°C° 0.1 mm 3 m/S 737 mmHg 81%
    23:00 +2°C° 0.1 mm 3 m/S 736 mmHg 84%

    Morgen, 24 Februar, Montag

    Zeit Temperatur Niederschläge Wind Luftdruck Luftfeuchtigkeit
    00:00 +3°C° 0.4 mm 2 m/S 735 mmHg 88%
    01:00 +4°C° 0.4 mm 1 m/S 734 mmHg 92%
    02:00 +4°C° 0.4 mm 1 m/S 732 mmHg 97%
    03:00 +2°C° 0.4 mm 2 m/S 732 mmHg 95%
    04:00 +1°C° 0.4 mm 3 m/S 732 mmHg 94%
    05:00 0°C° 0.4 mm 4 m/S 732 mmHg 93%
    06:00 0°C° 0 mm 4 m/S 733 mmHg 91%
    07:00 0°C° 0 mm 5 m/S 735 mmHg 89%
    08:00 0°C° 0 mm 5 m/S 736 mmHg 88%
    09:00 -1°C° 0 mm 6 m/S 737 mmHg 84%
    10:00 +1°C° 0 mm 6 m/S 737 mmHg 79%
    11:00 0°C° 0 mm 7 m/S 738 mmHg 75%
    12:00 0°C° 0 mm 7 m/S 739 mmHg 75%
    13:00 0°C° 0 mm 7 m/S 740 mmHg 75%
    14:00 +2°C° 0 mm 7 m/S 740 mmHg 75%
    15:00 +2°C° 0 mm 6 m/S 741 mmHg 71%
    16:00 +2°C° 0 mm 6 m/S 741 mmHg 68%
    17:00 +2°C° 0 mm 6 m/S 742 mmHg 64%
    18:00 +1°C° 0 mm 5 m/S 743 mmHg 66%
    19:00 0°C° 0 mm 4 m/S 744 mmHg 68%
    20:00 0°C° 0 mm 4 m/S 745 mmHg 71%
    21:00 0°C° 0 mm 3 m/S 745 mmHg 73%
    22:00 0°C° 0 mm 3 m/S 745 mmHg 76%
    23:00 -1°C° 0 mm 2 m/S 746 mmHg 79%

    übermorgen, 25 Februar, Dienstag

    Zeit Temperatur Niederschläge Wind Luftdruck Luftfeuchtigkeit
    00:00 -1°C° 0 mm 2 m/S 745 mmHg 81%
    01:00 -1°C° 0 mm 2 m/S 745 mmHg 82%
    02:00 -1°C° 0 mm 2 m/S 745 mmHg 84%
    03:00 -1°C° 0 mm 2 m/S 745 mmHg 85%
    04:00 -1°C° 0 mm 2 m/S 744 mmHg 85%
    05:00 -1°C° 0 mm 2 m/S 744 mmHg 85%
    06:00 -1°C° 0 mm 3 m/S 743 mmHg 85%
    07:00 0°C° 0 mm 3 m/S 743 mmHg 85%
    08:00 0°C° 0 mm 3 m/S 742 mmHg 85%
    09:00 -1°C° 0.2 mm 4 m/S 742 mmHg 88%
    10:00 -1°C° 0.2 mm 4 m/S 741 mmHg 91%
    11:00 -1°C° 0.2 mm 4 m/S 740 mmHg 95%
    12:00 -1°C° 0.3 mm 4 m/S 739 mmHg 95%
    13:00 -1°C° 0.3 mm 5 m/S 739 mmHg 95%
    14:00 -1°C° 0.3 mm 5 m/S 738 mmHg 95%
    15:00 0°C° 0.3 mm 4 m/S 737 mmHg 95%
    16:00 +1°C° 0.3 mm 4 m/S 737 mmHg 95%
    17:00 +3°C° 0.3 mm 4 m/S 736 mmHg 94%
    18:00 +3°C° 0.3 mm 4 m/S 736 mmHg 93%
    19:00 +4°C° 0.3 mm 4 m/S 736 mmHg 93%
    20:00 +4°C° 0.3 mm 4 m/S 736 mmHg 92%
    21:00 +4°C° 0.2 mm 4 m/S 736 mmHg 92%
    22:00 +4°C° 0.2 mm 4 m/S 736 mmHg 92%
    23:00 +3°C° 0.2 mm 4 m/S 736 mmHg 92%

    26 Februar, Mittwoch

    Zeit Temperatur Niederschläge Wind Luftdruck Luftfeuchtigkeit
    00:00 +3°C° 0.4 mm 4 m/S 736 mmHg 92%
    01:00 +3°C° 0.4 mm 4 m/S 736 mmHg 92%
    02:00 +3°C° 0.4 mm 4 m/S 736 mmHg 92%
    03:00 +3°C° 0.1 mm 3 m/S 736 mmHg 88%
    04:00 +3°C° 0.1 mm 3 m/S 735 mmHg 85%
    05:00 +2°C° 0.1 mm 3 m/S 735 mmHg 81%
    06:00 +2°C° 0 mm 3 m/S 735 mmHg 82%
    07:00 +2°C° 0 mm 3 m/S 735 mmHg 83%
    08:00 +1°C° 0 mm 3 m/S 735 mmHg 84%
    09:00 +2°C° 0 mm 3 m/S 736 mmHg 78%
    10:00 +3°C° 0 mm 3 m/S 736 mmHg 71%
    11:00 +4°C° 0 mm 4 m/S 736 mmHg 65%
    12:00 +5°C° 0 mm 3 m/S 736 mmHg 61%
    13:00 +5°C° 0 mm 3 m/S 736 mmHg 57%
    14:00 +7°C° 0 mm 3 m/S 736 mmHg 54%
    15:00 +5°C° 0 mm 3 m/S 735 mmHg 57%
    16:00 +6°C° 0 mm 2 m/S 735 mmHg 61%
    17:00 +6°C° 0 mm 1 m/S 735 mmHg 64%
    18:00 +5°C° 0 mm 1 m/S 736 mmHg 67%
    19:00 +5°C° 0 mm 1 m/S 736 mmHg 70%
    20:00 +4°C° 0 mm 1 m/S 736 mmHg 73%
    21:00 +4°C° 0 mm 1 m/S 736 mmHg 75%
    22:00 +4°C° 0 mm 1 m/S 736 mmHg 77%
    23:00 +3°C° 0 mm 1 m/S 736 mmHg 78%

    27 Februar, Donnerstag

    Zeit Temperatur Niederschläge Wind Luftdruck Luftfeuchtigkeit
    00:00 +3°C° 0 mm 1 m/S 736 mmHg 80%
    01:00 +3°C° 0 mm 1 m/S 736 mmHg 81%
    02:00 +3°C° 0 mm 1 m/S 736 mmHg 83%
    03:00 +3°C° 0 mm 1 m/S 736 mmHg 83%
    04:00 +3°C° 0 mm 1 m/S 736 mmHg 83%
    05:00 +3°C° 0 mm 1 m/S 736 mmHg 84%
    06:00 +3°C° 0 mm 1 m/S 736 mmHg 84%
    07:00 +3°C° 0 mm 1 m/S 736 mmHg 85%
    08:00 +3°C° 0 mm 1 m/S 736 mmHg 86%
    09:00 +4°C° 0 mm 1 m/S 736 mmHg 81%
    10:00 +5°C° 0 mm 1 m/S 736 mmHg 76%
    11:00 +6°C° 0 mm 1 m/S 737 mmHg 71%
    12:00 +6°C° 0 mm 2 m/S 737 mmHg 68%
    13:00 +5°C° 0 mm 3 m/S 737 mmHg 65%
    14:00 +5°C° 0 mm 3 m/S 737 mmHg 63%
    15:00 +5°C° 0 mm 3 m/S 737 mmHg 64%
    16:00 +4°C° 0 mm 3 m/S 738 mmHg 66%
    17:00 +4°C° 0 mm 3 m/S 738 mmHg 68%
    18:00 +3°C° 0 mm 3 m/S 738 mmHg 70%
    19:00 +2°C° 0 mm 3 m/S 739 mmHg 73%
    20:00 +2°C° 0 mm 3 m/S 739 mmHg 75%
    21:00 +1°C° 0 mm 3 m/S 740 mmHg 78%
    22:00 +1°C° 0 mm 2 m/S 740 mmHg 80%
    23:00 +1°C° 0 mm 2 m/S 740 mmHg 82%

    28 Februar, Freitag

    Zeit Temperatur Niederschläge Wind Luftdruck Luftfeuchtigkeit
    00:00 -1°C° 0 mm 2 m/S 740 mmHg 84%
    01:00 +1°C° 0 mm 1 m/S 740 mmHg 87%
    02:00 +1°C° 0 mm 1 m/S 740 mmHg 89%
    03:00 0°C° 0 mm 1 m/S 740 mmHg 90%
    04:00 -2°C° 0 mm 2 m/S 740 mmHg 91%
    05:00 -2°C° 0 mm 2 m/S 740 mmHg 92%
    06:00 -2°C° 0 mm 2 m/S 740 mmHg 91%
    07:00 -2°C° 0 mm 2 m/S 740 mmHg 90%
    08:00 -2°C° 0 mm 2 m/S 740 mmHg 88%
    09:00 +1°C° 0 mm 2 m/S 740 mmHg 81%
    10:00 +2°C° 0 mm 2 m/S 740 mmHg 73%
    11:00 +2°C° 0 mm 3 m/S 740 mmHg 66%
    12:00 +3°C° 0 mm 3 m/S 739 mmHg 60%
    13:00 +3°C° 0 mm 4 m/S 738 mmHg 55%
    14:00 +3°C° 0 mm 5 m/S 738 mmHg 50%
    15:00 +4°C° 0 mm 4 m/S 737 mmHg 53%
    16:00 +4°C° 0 mm 4 m/S 737 mmHg 56%
    17:00 +3°C° 0 mm 4 m/S 737 mmHg 59%
    18:00 +2°C° 0.2 mm 5 m/S 736 mmHg 68%
    19:00 +1°C° 0.2 mm 5 m/S 736 mmHg 78%
    20:00 +1°C° 0.2 mm 6 m/S 736 mmHg 87%
    21:00 +1°C° 0 mm 5 m/S 736 mmHg 87%
    22:00 0°C° 0 mm 5 m/S 736 mmHg 86%
    23:00 0°C° 0 mm 5 m/S 735 mmHg 86%
    Mehr zeigen